Location: Owl Hollow
(40.7341°N, 104.4073°W)
Time: 15:16:49
(UTC-07:00)

ISS - Visible Passes

Search period start: 23 November 2017 00:00
Search period end: 03 December 2017 00:00
Orbit: 402 x 407 km, 51.6° (Epoch: 24 November)

Date Brightness Start Highest point End Pass type
(mag) Time Alt. Az. Time Alt. Az. Time Alt. Az.
24 Nov -1.2 18:15:11 10° SSE 18:15:22 11° SSE 18:15:22 11° SSE visible
25 Nov -1.0 18:57:36 10° SW 18:58:18 15° SW 18:58:18 15° SW visible
26 Nov -2.9 18:05:37 10° SSW 18:08:27 34° SE 18:08:27 34° SE visible
27 Nov -1.9 17:14:07 10° S 17:16:25 18° SE 17:18:31 11° E visible
27 Nov -1.7 18:49:27 10° WSW 18:51:11 27° W 18:51:11 27° W visible
28 Nov -3.9 17:56:59 10° SW 18:00:15 87° SE 18:01:09 45° NE visible
29 Nov -3.2 17:04:49 10° SSW 17:07:56 43° SE 17:11:03 10° ENE visible
29 Nov -1.7 18:41:40 10° W 18:43:42 24° NW 18:43:42 24° NW visible
30 Nov -2.9 17:48:52 10° WSW 17:52:00 41° NNW 17:53:31 24° NNE visible
01 Dec -1.4 18:34:09 10° WNW 18:35:55 17° NNW 18:35:55 17° NNW visible
02 Dec -2.0 17:41:07 10° WNW 17:43:50 23° NNW 17:45:37 15° NNE visible
